P/2011 N1 ( ASH )

Japanese version
Home page
Updated on January 22, 2012

---------------------------------------------------------------------

* Profile

Discovery Date July 1, 2011
Magnitude 19.9 mag
Discoverer Ignacio de la Cueva (Ibiza, Spain), J. L. Ortiz, P. Santos-Sanz, N. Morales (San Pedro de Atacama, Chile)

* Pictures

* Orbital Elements

Epoch 2012 June 2.0 TT = JDT 2456080.5
T 2012 May 31.08567 TT                                  MPC
q   2.8580071            (2000.0)            P               Q
n   0.06228744     Peri.  331.01816     +0.57123157     -0.59080431
a   6.3028320      Node    77.67631     +0.81942706     +0.37051797
e   0.5465519      Incl.   35.67698     +0.04726295     +0.71670545
P  15.8
From 212 observations 2011 July 1-2012 Jan. 18, mean residual 0".4.

* Finding Charts

* Magnitudes Graph

        m1 = 10.0 + 5 log d + 10.0 log r

---------------------------------------------------------------------

The orbital elements are published on M.P.E.C. 2012-B23.
The charts are made with StellaNavigator Ver.8 (AstroArts).
The magnitudes graphs are made with Comet for Windows.

---------------------------------------------------------------------

Copyright(C) Seiichi Yoshida (comet@aerith.net). All rights reserved.